| time (UTC) | temp C | wind direction | speed KPH | gust KPH | rain 1hr cm | rain 24hr cm | rain mn cm | humidity % | barometer mb |
| 20260507105020 | 17 | 291 | 0.0 | 3.2 | 0.00 | 0.00 | 0.00 | 44 | 1016.7 |
| 20260507104518 | 17 | 299 | 0.0 | 3.2 | 0.00 | 0.00 | 0.00 | 44 | 1016.7 |
| 20260507104015 | 17 | 208 | 0.0 | 3.2 | 0.00 | 0.00 | 0.00 | 43 | 1016.9 |
| 20260507103505 | 18 | 180 | 1.6 | 3.2 | 0.00 | 0.00 | 0.00 | 43 | 1016.8 |
| 20260507103002 | 18 | 162 | 1.6 | 3.2 | 0.00 | 0.00 | 0.00 | 43 | 1016.9 |
| 20260507102459 | 18 | 141 | 1.6 | 3.2 | 0.00 | 0.00 | 0.00 | 44 | 1016.7 |
| 20260507101954 | 18 | 212 | 1.6 | 3.2 | 0.00 | 0.00 | 0.00 | 44 | 1016.7 |
| 20260507101449 | 17 | 180 | 0.0 | 1.6 | 0.00 | 0.00 | 0.00 | 43 | 1016.8 |
| 20260507100946 | 17 | 189 | 1.6 | 1.6 | 0.00 | 0.00 | 0.00 | 44 | 1016.9 |
| 20260507100443 | 17 | 197 | 0.0 | 3.2 | 0.00 | 0.00 | 0.00 | 45 | 1016.9 |
| 20260507095942 | 18 | 140 | 1.6 | 1.6 | 0.00 | 0.00 | 0.00 | 44 | 1016.9 |
| 20260507095439 | 17 | 146 | 0.0 | 0.0 | 0.00 | 0.00 | 0.00 | 46 | 1016.8 |
| 20260507094936 | 18 | 211 | 0.0 | 3.2 | 0.00 | 0.00 | 0.00 | 44 | 1016.9 |
| 20260507094432 | 18 | 14 | 0.0 | 1.6 | 0.00 | 0.00 | 0.00 | 44 | 1016.9 |
| 20260507093929 | 18 | 206 | 1.6 | 3.2 | 0.00 | 0.00 | 0.00 | 44 | 1017.1 |
| 20260507093427 | 18 | 256 | 3.2 | 3.2 | 0.00 | 0.00 | 0.00 | 45 | 1016.8 |
| 20260507092925 | 18 | 212 | 0.0 | 1.6 | 0.00 | 0.00 | 0.00 | 44 | 1017.2 |
| 20260507092420 | 18 | 170 | 3.2 | 3.2 | 0.00 | 0.00 | 0.00 | 44 | 1017.2 |
| 20260507091917 | 18 | 248 | 1.6 | 3.2 | 0.00 | 0.00 | 0.00 | 45 | 1017.4 |
| 20260507091414 | 18 | 243 | 1.6 | 3.2 | 0.00 | 0.00 | 0.00 | 44 | 1017.2 |
| 20260507090910 | 18 | 239 | 0.0 | 1.6 | 0.00 | 0.00 | 0.00 | 43 | 1017.5 |
| 20260507090406 | 18 | 153 | 1.6 | 3.2 | 0.00 | 0.00 | 0.00 | 44 | 1017.4 |
| 20260507085903 | 18 | 219 | 0.0 | 3.2 | 0.00 | 0.00 | 0.00 | 44 | 1017.6 |
| 20260507085400 | 19 | 213 | 1.6 | 3.2 | 0.00 | 0.00 | 0.00 | 44 | 1017.5 |
| 20260507084857 | 18 | 171 | 0.0 | 3.2 | 0.00 | 0.00 | 0.00 | 45 | 1017.7 |
| 20260507084354 | 18 | 176 | 0.0 | 3.2 | 0.00 | 0.00 | 0.00 | 45 | 1017.6 |
| 20260507083851 | 18 | 234 | 0.0 | 3.2 | 0.00 | 0.00 | 0.00 | 44 | 1017.7 |
| 20260507083347 | 19 | 204 | 1.6 | 4.8 | 0.00 | 0.00 | 0.00 | 43 | 1017.7 |
| 20260507082843 | 19 | 125 | 1.6 | 3.2 | 0.00 | 0.00 | 0.00 | 45 | 1017.8 |
| 20260507082339 | 20 | 66 | 0.0 | 1.6 | 0.00 | 0.00 | 0.00 | 45 | 1017.6 |
| 20260507081837 | 20 | 89 | 0.0 | 0.0 | 0.00 | 0.00 | 0.00 | 45 | 1017.6 |
| 20260507081332 | 20 | 309 | 0.0 | 0.0 | 0.00 | 0.00 | 0.00 | 42 | 1017.8 |
| 20260507080829 | 20 | 202 | 1.6 | 3.2 | 0.00 | 0.00 | 0.00 | 42 | 1017.9 |
| 20260507080325 | 20 | 212 | 0.0 | 1.6 | 0.00 | 0.00 | 0.00 | 42 | 1017.8 |
| 20260507075821 | 20 | 44 | 0.0 | 3.2 | 0.00 | 0.00 | 0.00 | 42 | 1017.8 |
| 20260507075317 | 20 | 269 | 0.0 | 1.6 | 0.00 | 0.00 | 0.00 | 39 | 1017.9 |
| 20260507074814 | 21 | 55 | 0.0 | 1.6 | 0.00 | 0.00 | 0.00 | 41 | 1017.6 |
| 20260507074312 | 20 | 107 | 0.0 | 1.6 | 0.00 | 0.00 | 0.00 | 42 | 1017.7 |
| 20260507073809 | 21 | 196 | 1.6 | 3.2 | 0.00 | 0.00 | 0.00 | 41 | 1017.7 |
| 20260507073305 | 22 | 119 | 0.0 | 3.2 | 0.00 | 0.00 | 0.00 | 40 | 1017.7 |
| 20260507072802 | 22 | 223 | 3.2 | 4.8 | 0.00 | 0.00 | 0.00 | 41 | 1017.6 |
| 20260507072300 | 22 | 173 | 0.0 | 4.8 | 0.00 | 0.00 | 0.00 | 42 | 1017.9 |
| 20260507071757 | 21 | 146 | 3.2 | 4.8 | 0.00 | 0.00 | 0.00 | 43 | 1017.8 |
| 20260507071253 | 21 | 168 | 3.2 | 3.2 | 0.00 | 0.00 | 0.00 | 44 | 1017.9 |
| 20260507070750 | 20 | 252 | 1.6 | 3.2 | 0.00 | 0.00 | 0.00 | 43 | 1017.7 |
| 20260507070247 | 20 | 269 | 0.0 | 3.2 | 0.00 | 0.00 | 0.00 | 42 | 1017.9 |
| 20260507065744 | 21 | 316 | 0.0 | 4.8 | 0.00 | 0.00 | 0.00 | 43 | 1017.8 |
| 20260507065241 | 20 | 311 | 0.0 | 3.2 | 0.00 | 0.00 | 0.00 | 44 | 1017.7 |
| 20260507064738 | 21 | 106 | 3.2 | 4.8 | 0.00 | 0.00 | 0.00 | 43 | 1017.8 |
| 20260507064237 | 21 | 60 | 0.0 | 3.2 | 0.00 | 0.00 | 0.00 | 43 | 1017.8 |
| 20260507063734 | 21 | 91 | 0.0 | 3.2 | 0.00 | 0.00 | 0.00 | 42 | 1017.6 |
| 20260507063230 | 21 | 126 | 0.0 | 3.2 | 0.00 | 0.00 | 0.00 | 41 | 1017.6 |
| 20260507062727 | 22 | 124 | 3.2 | 3.2 | 0.00 | 0.00 | 0.00 | 41 | 1017.7 |
| 20260507062225 | 22 | 109 | 0.0 | 3.2 | 0.00 | 0.00 | 0.00 | 42 | 1017.6 |
| 20260507061723 | 21 | 235 | 1.6 | 3.2 | 0.00 | 0.00 | 0.00 | 41 | 1017.7 |
| 20260507061221 | 22 | 173 | 0.0 | 1.6 | 0.00 | 0.00 | 0.00 | 42 | 1017.6 |
| 20260507060718 | 21 | 171 | 0.0 | 1.6 | 0.00 | 0.00 | 0.00 | 42 | 1017.5 |
| 20260507060214 | 21 | 224 | 0.0 | 1.6 | 0.00 | 0.00 | 0.00 | 39 | 1017.7 |
| 20260507055711 | 22 | 212 | 0.0 | 3.2 | 0.00 | 0.00 | 0.00 | 40 | 1017.7 |
| 20260507055207 | 22 | 65 | 0.0 | 3.2 | 0.00 | 0.00 | 0.00 | 38 | 1017.7 |
| 20260507054703 | 23 | 49 | 0.0 | 3.2 | 0.00 | 0.00 | 0.00 | 37 | 1017.5 |
| 20260507054159 | 23 | 287 | 0.0 | 6.4 | 0.00 | 0.00 | 0.00 | 37 | 1017.7 |
| 20260507053658 | 23 | 87 | 1.6 | 4.8 | 0.00 | 0.00 | 0.00 | 36 | 1017.6 |
| 20260507053155 | 23 | 131 | 1.6 | 3.2 | 0.00 | 0.00 | 0.00 | 36 | 1017.7 |
| 20260507052654 | 23 | 127 | 0.0 | 6.4 | 0.00 | 0.00 | 0.00 | 36 | 1017.7 |
| 20260507052149 | 23 | 170 | 1.6 | 3.2 | 0.00 | 0.00 | 0.00 | 36 | 1017.7 |
| 20260507051647 | 23 | 217 | 3.2 | 3.2 | 0.00 | 0.00 | 0.00 | 36 | 1017.6 |
| 20260507051144 | 23 | 174 | 1.6 | 3.2 | 0.00 | 0.00 | 0.00 | 36 | 1017.8 |
| 20260507050641 | 23 | 66 | 0.0 | 3.2 | 0.00 | 0.00 | 0.00 | 34 | 1017.9 |
| 20260507050137 | 23 | 151 | 3.2 | 3.2 | 0.00 | 0.00 | 0.00 | 34 | 1017.9 |
| 20260507045634 | 23 | 75 | 0.0 | 6.4 | 0.00 | 0.00 | 0.00 | 34 | 1018.0 |
| 20260507045131 | 23 | 180 | 0.0 | 3.2 | 0.00 | 0.00 | 0.00 | 35 | 1017.8 |
| 20260507044628 | 25 | 89 | 0.0 | 3.2 | 0.00 | 0.00 | 0.00 | 36 | 1018.0 |
| 20260507044125 | 25 | 358 | 1.6 | 1.6 | 0.00 | 0.00 | 0.00 | 35 | 1017.9 |
| 20260507043621 | 25 | 206 | 0.0 | 6.4 | 0.00 | 0.00 | 0.00 | 35 | 1017.7 |
| 20260507043118 | 26 | 268 | 3.2 | 4.8 | 0.00 | 0.00 | 0.00 | 35 | 1017.8 |
| 20260507042614 | 26 | 245 | 6.4 | 8.0 | 0.00 | 0.00 | 0.00 | 35 | 1018.0 |
| 20260507042109 | 25 | 280 | 0.0 | 4.8 | 0.00 | 0.00 | 0.00 | 35 | 1017.7 |
| 20260507041606 | 26 | 245 | 4.8 | 6.4 | 0.00 | 0.00 | 0.00 | 35 | 1017.7 |
| 20260507041103 | 26 | 250 | 3.2 | 8.0 | 0.00 | 0.00 | 0.00 | 35 | 1017.8 |
| 20260507040600 | 26 | 25 | 0.0 | 4.8 | 0.00 | 0.00 | 0.00 | 35 | 1017.8 |
| 20260507040056 | 26 | 330 | 6.4 | 8.0 | 0.00 | 0.00 | 0.00 | 35 | 1017.6 |
| 20260507035552 | 26 | 337 | 3.2 | 4.8 | 0.00 | 0.00 | 0.00 | 34 | 1017.8 |
| 20260507035044 | 26 | 333 | 4.8 | 6.4 | 0.00 | 0.00 | 0.00 | 34 | 1017.8 |
| 20260507034540 | 26 | 333 | 3.2 | 9.7 | 0.00 | 0.00 | 0.00 | 34 | 1017.6 |
| 20260507034038 | 26 | 331 | 3.2 | 12.9 | 0.00 | 0.00 | 0.00 | 34 | 1017.4 |
| 20260507033536 | 26 | 304 | 4.8 | 12.9 | 0.00 | 0.00 | 0.00 | 34 | 1017.7 |
| 20260507033033 | 26 | 326 | 3.2 | 8.0 | 0.00 | 0.00 | 0.00 | 34 | 1017.4 |
| 20260507032530 | 26 | 315 | 11.3 | 19.3 | 0.00 | 0.00 | 0.00 | 34 | 1017.3 |
| 20260507032026 | 26 | 305 | 4.8 | 9.7 | 0.00 | 0.00 | 0.00 | 35 | 1017.3 |
| 20260507031522 | 26 | 302 | 4.8 | 9.7 | 0.00 | 0.00 | 0.00 | 35 | 1017.2 |
| 20260507031020 | 27 | 312 | 6.4 | 11.3 | 0.00 | 0.00 | 0.00 | 35 | 1017.2 |
| 20260507030516 | 27 | 337 | 6.4 | 12.9 | 0.00 | 0.00 | 0.00 | 35 | 1017.2 |
| 20260507030014 | 27 | 327 | 9.7 | 11.3 | 0.00 | 0.00 | 0.00 | 35 | 1016.9 |
| 20260507025511 | 27 | 322 | 8.0 | 12.9 | 0.00 | 0.00 | 0.00 | 35 | 1016.9 |
| 20260507025008 | 27 | 310 | 11.3 | 14.5 | 0.00 | 0.00 | 0.00 | 35 | 1016.8 |
| 20260507024506 | 27 | 340 | 4.8 | 4.8 | 0.00 | 0.00 | 0.00 | 32 | 1016.9 |
| 20260507024001 | 27 | 109 | 1.6 | 3.2 | 0.00 | 0.00 | 0.00 | 28 | 1016.9 |
| 20260507023458 | 27 | 1 | 3.2 | 4.8 | 0.00 | 0.00 | 0.00 | 24 | 1016.8 |
| 20260507022955 | 26 | 352 | 3.2 | 3.2 | 0.00 | 0.00 | 0.00 | 24 | 1017.0 |
| 20260507022452 | 27 | 347 | 1.6 | 3.2 | 0.00 | 0.00 | 0.00 | 24 | 1016.7 |
| 20260507021948 | 27 | 51 | 0.0 | 3.2 | 0.00 | 0.00 | 0.00 | 23 | 1016.6 |
| 20260507021443 | 27 | 69 | 1.6 | 3.2 | 0.00 | 0.00 | 0.00 | 23 | 1016.7 |
| 20260507020941 | 27 | 85 | 3.2 | 3.2 | 0.00 | 0.00 | 0.00 | 23 | 1016.6 |
| 20260507020437 | 27 | 108 | 3.2 | 3.2 | 0.00 | 0.00 | 0.00 | 22 | 1016.5 |
| 20260507015934 | 28 | 48 | 0.0 | 3.2 | 0.00 | 0.00 | 0.00 | 22 | 1016.6 |
| 20260507015433 | 28 | 75 | 3.2 | 4.8 | 0.00 | 0.00 | 0.00 | 22 | 1016.7 |
| 20260507014924 | 28 | 81 | 4.8 | 6.4 | 0.00 | 0.00 | 0.00 | 22 | 1016.3 |
| 20260507014421 | 28 | 93 | 3.2 | 8.0 | 0.00 | 0.00 | 0.00 | 22 | 1016.3 |
| 20260507013917 | 28 | 87 | 6.4 | 8.0 | 0.00 | 0.00 | 0.00 | 22 | 1016.3 |
| 20260507013414 | 28 | 86 | 4.8 | 6.4 | 0.00 | 0.00 | 0.00 | 22 | 1016.5 |
| 20260507012912 | 28 | 94 | 6.4 | 9.7 | 0.00 | 0.00 | 0.00 | 22 | 1016.5 |
| 20260507012408 | 28 | 95 | 6.4 | 8.0 | 0.00 | 0.00 | 0.00 | 21 | 1016.6 |
| 20260507011904 | 30 | 89 | 3.2 | 6.4 | 0.00 | 0.00 | 0.00 | 21 | 1016.3 |
| 20260507011401 | 31 | 55 | 3.2 | 4.8 | 0.00 | 0.00 | 0.00 | 20 | 1016.3 |
| 20260507010855 | 30 | 248 | 0.0 | 6.4 | 0.00 | 0.00 | 0.00 | 20 | 1016.3 |
| 20260507010351 | 30 | 103 | 0.0 | 4.8 | 0.00 | 0.00 | 0.00 | 21 | 1016.2 |
| 20260507005849 | 30 | 41 | 1.6 | 8.0 | 0.00 | 0.00 | 0.00 | 21 | 1016.3 |
| 20260507005345 | 30 | 175 | 0.0 | 6.4 | 0.00 | 0.00 | 0.00 | 20 | 1016.1 |
| 20260507004842 | 30 | 42 | 4.8 | 8.0 | 0.00 | 0.00 | 0.00 | 20 | 1016.2 |
| 20260507004339 | 32 | 71 | 3.2 | 4.8 | 0.00 | 0.00 | 0.00 | 19 | 1016.1 |
| 20260507003836 | 31 | 96 | 1.6 | 4.8 | 0.00 | 0.00 | 0.00 | 20 | 1016.2 |
| 20260507003331 | 30 | 83 | 4.8 | 8.0 | 0.00 | 0.00 | 0.00 | 20 | 1016.5 |
| 20260507002826 | 30 | 94 | 3.2 | 12.9 | 0.00 | 0.00 | 0.00 | 20 | 1016.2 |
| 20260507002322 | 30 | 88 | 6.4 | 11.3 | 0.00 | 0.00 | 0.00 | 20 | 1016.1 |
| 20260507001820 | 31 | 80 | 3.2 | 8.0 | 0.00 | 0.00 | 0.00 | 20 | 1016.2 |
| 20260507001317 | 31 | 79 | 1.6 | 3.2 | 0.00 | 0.00 | 0.00 | 19 | 1016.1 |
| 20260507000813 | 30 | 167 | 1.6 | 4.8 | 0.00 | 0.00 | 0.00 | 20 | 1016.3 |
| 20260507000309 | 30 | 79 | 8.0 | 9.7 | 0.00 | 0.00 | 0.00 | 20 | 1016.2 |
| 20260506235806 | 30 | 76 | 4.8 | 6.4 | 0.00 | 0.00 | 0.00 | 20 | 1016.3 |
| 20260506235306 | 30 | 71 | 4.8 | 8.0 | 0.00 | 0.00 | 0.00 | 20 | 1016.2 |
| 20260506234753 | 31 | 91 | 6.4 | 9.7 | 0.00 | 0.00 | 0.00 | 20 | 1016.0 |
| 20260506234251 | 32 | 255 | 0.0 | 3.2 | 0.00 | 0.00 | 0.00 | 19 | 1016.1 |
| 20260506233748 | 31 | 73 | 3.2 | 4.8 | 0.00 | 0.00 | 0.00 | 20 | 1016.5 |
| 20260506233244 | 31 | 71 | 3.2 | 6.4 | 0.00 | 0.00 | 0.00 | 20 | 1016.3 |
| 20260506232741 | 31 | 97 | 3.2 | 6.4 | 0.00 | 0.00 | 0.00 | 20 | 1016.5 |
| 20260506232236 | 30 | 63 | 0.0 | 8.0 | 0.00 | 0.00 | 0.00 | 21 | 1016.5 |
| 20260506231734 | 30 | 98 | 4.8 | 11.3 | 0.00 | 0.00 | 0.00 | 20 | 1016.3 |
| 20260506231232 | 30 | 81 | 3.2 | 12.9 | 0.00 | 0.00 | 0.00 | 21 | 1016.6 |
| 20260506230729 | 30 | 109 | 11.3 | 20.9 | 0.00 | 0.00 | 0.00 | 21 | 1016.3 |
| 20260506230225 | 30 | 185 | 3.2 | 8.0 | 0.00 | 0.00 | 0.00 | 20 | 1016.6 |
| 20260506225722 | 31 | 161 | 3.2 | 9.7 | 0.00 | 0.00 | 0.00 | 20 | 1016.7 |
| 20260506225219 | 31 | 89 | 0.0 | 6.4 | 0.00 | 0.00 | 0.00 | 20 | 1016.8 |
| 20260506224715 | 31 | 215 | 3.2 | 6.4 | 0.00 | 0.00 | 0.00 | 20 | 1016.8 |
| 20260506224212 | 31 | 137 | 3.2 | 9.7 | 0.00 | 0.00 | 0.00 | 19 | 1016.7 |
| 20260506223709 | 31 | 110 | 4.8 | 12.9 | 0.00 | 0.00 | 0.00 | 20 | 1016.9 |
| 20260506223204 | 30 | 78 | 6.4 | 9.7 | 0.00 | 0.00 | 0.00 | 20 | 1017.0 |
| 20260506222701 | 30 | 4 | 3.2 | 8.0 | 0.00 | 0.00 | 0.00 | 20 | 1016.9 |
| 20260506222156 | 30 | 104 | 4.8 | 11.3 | 0.00 | 0.00 | 0.00 | 20 | 1017.2 |
| 20260506221650 | 30 | 92 | 9.7 | 14.5 | 0.00 | 0.00 | 0.00 | 20 | 1017.2 |
| 20260506221147 | 30 | 107 | 9.7 | 11.3 | 0.00 | 0.00 | 0.00 | 20 | 1017.3 |
| 20260506220644 | 30 | 88 | 9.7 | 19.3 | 0.00 | 0.00 | 0.00 | 20 | 1017.4 |
| 20260506220139 | 30 | 247 | 3.2 | 9.7 | 0.00 | 0.00 | 0.00 | 20 | 1017.4 |
| 20260506215636 | 31 | 128 | 3.2 | 8.0 | 0.00 | 0.00 | 0.00 | 20 | 1017.5 |
| 20260506215131 | 30 | 156 | 0.0 | 11.3 | 0.00 | 0.00 | 0.00 | 20 | 1017.5 |
| 20260506214628 | 30 | 95 | 8.0 | 11.3 | 0.00 | 0.00 | 0.00 | 21 | 1017.6 |
| 20260506214126 | 30 | 144 | 6.4 | 14.5 | 0.00 | 0.00 | 0.00 | 20 | 1017.7 |
| 20260506213624 | 30 | 108 | 14.5 | 14.5 | 0.00 | 0.00 | 0.00 | 20 | 1017.6 |
| 20260506213121 | 30 | 91 | 14.5 | 17.7 | 0.00 | 0.00 | 0.00 | 20 | 1017.5 |
| 20260506212618 | 30 | 98 | 6.4 | 9.7 | 0.00 | 0.00 | 0.00 | 20 | 1017.9 |
| 20260506212113 | 30 | 91 | 4.8 | 14.5 | 0.00 | 0.00 | 0.00 | 20 | 1018.0 |
| 20260506211608 | 30 | 86 | 4.8 | 6.4 | 0.00 | 0.00 | 0.00 | 21 | 1017.9 |
| 20260506211106 | 30 | 58 | 4.8 | 8.0 | 0.00 | 0.00 | 0.00 | 21 | 1018.2 |
| 20260506210602 | 30 | 110 | 1.6 | 6.4 | 0.00 | 0.00 | 0.00 | 20 | 1018.2 |
| 20260506210059 | 30 | 214 | 1.6 | 4.8 | 0.00 | 0.00 | 0.00 | 21 | 1018.2 |
| 20260506205556 | 30 | 178 | 4.8 | 8.0 | 0.00 | 0.00 | 0.00 | 20 | 1018.1 |
| 20260506205051 | 28 | 101 | 9.7 | 14.5 | 0.00 | 0.00 | 0.00 | 21 | 1018.2 |
| 20260506204549 | 30 | 96 | 8.0 | 9.7 | 0.00 | 0.00 | 0.00 | 21 | 1018.2 |
| 20260506204046 | 29 | 84 | 3.2 | 11.3 | 0.00 | 0.00 | 0.00 | 21 | 1018.4 |
| 20260506203544 | 29 | 104 | 6.4 | 12.9 | 0.00 | 0.00 | 0.00 | 21 | 1018.3 |
| 20260506203040 | 30 | 69 | 4.8 | 11.3 | 0.00 | 0.00 | 0.00 | 21 | 1018.5 |
| 20260506202538 | 28 | 163 | 8.0 | 12.9 | 0.00 | 0.00 | 0.00 | 21 | 1018.6 |
| 20260506202034 | 28 | 252 | 8.0 | 8.0 | 0.00 | 0.00 | 0.00 | 21 | 1018.5 |
| 20260506201532 | 28 | 20 | 3.2 | 6.4 | 0.00 | 0.00 | 0.00 | 22 | 1018.6 |
| 20260506201028 | 28 | 95 | 14.5 | 19.3 | 0.00 | 0.00 | 0.00 | 22 | 1018.8 |
| 20260506200524 | 28 | 73 | 8.0 | 9.7 | 0.00 | 0.00 | 0.00 | 22 | 1018.8 |
| 20260506200021 | 28 | 76 | 3.2 | 8.0 | 0.00 | 0.00 | 0.00 | 22 | 1018.8 |
| 20260506195518 | 28 | 126 | 6.4 | 14.5 | 0.00 | 0.00 | 0.00 | 22 | 1019.0 |
| 20260506195014 | 28 | 148 | 1.6 | 6.4 | 0.00 | 0.00 | 0.00 | 23 | 1019.1 |
| 20260506194512 | 28 | 113 | 6.4 | 12.9 | 0.00 | 0.00 | 0.00 | 22 | 1019.0 |
| 20260506194008 | 28 | 91 | 8.0 | 9.7 | 0.00 | 0.00 | 0.00 | 22 | 1019.2 |
| 20260506193505 | 27 | 97 | 4.8 | 19.3 | 0.00 | 0.00 | 0.00 | 23 | 1019.1 |
| 20260506192956 | 28 | 213 | 0.0 | 6.4 | 0.00 | 0.00 | 0.00 | 23 | 1019.2 |
| 20260506192454 | 28 | 128 | 9.7 | 9.7 | 0.00 | 0.00 | 0.00 | 22 | 1019.3 |
| 20260506191949 | 28 | 202 | 4.8 | 8.0 | 0.00 | 0.00 | 0.00 | 23 | 1019.2 |
| 20260506191447 | 27 | 163 | 1.6 | 9.7 | 0.00 | 0.00 | 0.00 | 23 | 1019.3 |
| 20260506190943 | 27 | 267 | 3.2 | 4.8 | 0.00 | 0.00 | 0.00 | 24 | 1019.4 |
| 20260506190440 | 27 | 313 | 1.6 | 6.4 | 0.00 | 0.00 | 0.00 | 25 | 1019.4 |
| 20260506185936 | 27 | 104 | 6.4 | 8.0 | 0.00 | 0.00 | 0.00 | 24 | 1019.5 |
| 20260506185434 | 27 | 173 | 6.4 | 8.0 | 0.00 | 0.00 | 0.00 | 25 | 1019.5 |
| 20260506184931 | 27 | 85 | 8.0 | 8.0 | 0.00 | 0.00 | 0.00 | 26 | 1019.5 |
| 20260506184427 | 27 | 302 | 0.0 | 4.8 | 0.00 | 0.00 | 0.00 | 25 | 1019.6 |
| 20260506183925 | 27 | 313 | 4.8 | 8.0 | 0.00 | 0.00 | 0.00 | 26 | 1019.7 |
| 20260506183420 | 26 | 112 | 4.8 | 14.5 | 0.00 | 0.00 | 0.00 | 26 | 1019.7 |
| 20260506182912 | 26 | 63 | 4.8 | 4.8 | 0.00 | 0.00 | 0.00 | 27 | 1019.8 |
| 20260506182409 | 26 | 141 | 3.2 | 6.4 | 0.00 | 0.00 | 0.00 | 28 | 1019.9 |
| 20260506181907 | 26 | 108 | 4.8 | 12.9 | 0.00 | 0.00 | 0.00 | 28 | 1019.7 |
| 20260506181404 | 27 | 96 | 1.6 | 8.0 | 0.00 | 0.00 | 0.00 | 27 | 1019.9 |
| 20260506180901 | 26 | 134 | 3.2 | 6.4 | 0.00 | 0.00 | 0.00 | 28 | 1019.8 |
| 20260506180357 | 25 | 102 | 6.4 | 14.5 | 0.00 | 0.00 | 0.00 | 29 | 1019.9 |
| 20260506175854 | 26 | 81 | 3.2 | 6.4 | 0.00 | 0.00 | 0.00 | 28 | 1019.8 |
| 20260506175350 | 26 | 82 | 3.2 | 6.4 | 0.00 | 0.00 | 0.00 | 28 | 1019.9 |
| 20260506174848 | 25 | 166 | 1.6 | 8.0 | 0.00 | 0.00 | 0.00 | 29 | 1020.0 |
| 20260506174345 | 25 | 35 | 1.6 | 8.0 | 0.00 | 0.00 | 0.00 | 30 | 1019.9 |
| 20260506173843 | 25 | 79 | 6.4 | 12.9 | 0.00 | 0.00 | 0.00 | 30 | 1019.9 |
| 20260506173339 | 25 | 58 | 0.0 | 4.8 | 0.00 | 0.00 | 0.00 | 29 | 1019.9 |
| 20260506172836 | 25 | 78 | 3.2 | 14.5 | 0.00 | 0.00 | 0.00 | 30 | 1020.2 |
| 20260506172333 | 24 | 107 | 4.8 | 9.7 | 0.00 | 0.00 | 0.00 | 30 | 1019.9 |
| 20260506171830 | 24 | 124 | 3.2 | 4.8 | 0.00 | 0.00 | 0.00 | 30 | 1020.0 |
| 20260506171327 | 24 | 112 | 4.8 | 12.9 | 0.00 | 0.00 | 0.00 | 30 | 1020.1 |
| 20260506170825 | 23 | 62 | 1.6 | 8.0 | 0.00 | 0.00 | 0.00 | 31 | 1020.0 |
| 20260506170320 | 24 | 108 | 4.8 | 8.0 | 0.00 | 0.00 | 0.00 | 30 | 1020.0 |
| 20260506165819 | 23 | 350 | 1.6 | 6.4 | 0.00 | 0.00 | 0.00 | 31 | 1019.8 |
| 20260506165316 | 23 | 95 | 6.4 | 6.4 | 0.00 | 0.00 | 0.00 | 31 | 1020.1 |
| 20260506164813 | 25 | 69 | 4.8 | 6.4 | 0.00 | 0.00 | 0.00 | 30 | 1020.0 |
| 20260506164310 | 24 | 162 | 3.2 | 6.4 | 0.00 | 0.00 | 0.00 | 31 | 1019.9 |
| 20260506163807 | 23 | 249 | 4.8 | 4.8 | 0.00 | 0.00 | 0.00 | 32 | 1019.9 |
| 20260506163301 | 23 | 145 | 1.6 | 6.4 | 0.00 | 0.00 | 0.00 | 33 | 1019.9 |
| 20260506162757 | 22 | 20 | 4.8 | 6.4 | 0.00 | 0.00 | 0.00 | 34 | 1019.8 |
| 20260506162256 | 22 | 258 | 0.0 | 4.8 | 0.00 | 0.00 | 0.00 | 34 | 1019.8 |
| 20260506161752 | 22 | 61 | 0.0 | 3.2 | 0.00 | 0.00 | 0.00 | 35 | 1019.8 |
| 20260506161250 | 22 | 89 | 0.0 | 4.8 | 0.00 | 0.00 | 0.00 | 35 | 1019.8 |
| 20260506160747 | 21 | 151 | 4.8 | 4.8 | 0.00 | 0.00 | 0.00 | 36 | 1019.7 |
| 20260506160244 | 22 | 117 | 6.4 | 6.4 | 0.00 | 0.00 | 0.00 | 35 | 1019.8 |
| 20260506155743 | 22 | 89 | 0.0 | 3.2 | 0.00 | 0.00 | 0.00 | 35 | 1019.8 |
| 20260506155239 | 22 | 109 | 3.2 | 4.8 | 0.00 | 0.00 | 0.00 | 35 | 1019.9 |
| 20260506153347 | 20 | 191 | 1.6 | 4.8 | 0.00 | 0.00 | 0.00 | 39 | 1019.7 |
| 20260506152843 | 20 | 322 | 0.0 | 4.8 | 0.00 | 0.00 | 0.00 | 40 | 1019.7 |
| 20260506152340 | 21 | 102 | 0.0 | 4.8 | 0.00 | 0.00 | 0.00 | 38 | 1019.6 |
| 20260506151839 | 21 | 269 | 0.0 | 3.2 | 0.00 | 0.00 | 0.00 | 38 | 1019.7 |
| 20260506151336 | 21 | 58 | 3.2 | 3.2 | 0.00 | 0.00 | 0.00 | 37 | 1019.7 |
| 20260506150833 | 20 | 25 | 0.0 | 1.6 | 0.00 | 0.00 | 0.00 | 39 | 1019.6 |
| 20260506150330 | 20 | 89 | 0.0 | 1.6 | 0.00 | 0.00 | 0.00 | 40 | 1019.8 |
| 20260506145826 | 20 | 86 | 1.6 | 4.8 | 0.00 | 0.00 | 0.00 | 40 | 1019.9 |
| 20260506145322 | 20 | 95 | 1.6 | 4.8 | 0.00 | 0.00 | 0.00 | 41 | 1019.8 |
| 20260506144821 | 19 | 81 | 3.2 | 4.8 | 0.00 | 0.00 | 0.00 | 41 | 1019.7 |
| 20260506144317 | 18 | 91 | 0.0 | 3.2 | 0.00 | 0.00 | 0.00 | 45 | 1019.8 |
| 20260506143816 | 18 | 22 | 0.0 | 3.2 | 0.00 | 0.00 | 0.00 | 43 | 1019.7 |
| 20260506143312 | 18 | 62 | 1.6 | 3.2 | 0.00 | 0.00 | 0.00 | 45 | 1019.7 |
| 20260506142810 | 17 | 27 | 3.2 | 3.2 | 0.00 | 0.00 | 0.00 | 46 | 1019.7 |
| 20260506142307 | 17 | 13 | 1.6 | 3.2 | 0.00 | 0.00 | 0.00 | 48 | 1019.6 |
| 20260506141806 | 17 | 21 | 1.6 | 3.2 | 0.00 | 0.00 | 0.00 | 46 | 1019.5 |
| 20260506141304 | 17 | 39 | 0.0 | 3.2 | 0.00 | 0.00 | 0.00 | 46 | 1019.7 |
| 20260506140801 | 17 | 60 | 1.6 | 3.2 | 0.00 | 0.00 | 0.00 | 46 | 1019.4 |
| 20260506140257 | 17 | 96 | 3.2 | 3.2 | 0.00 | 0.00 | 0.00 | 48 | 1019.4 |
| 20260506135755 | 15 | 34 | 0.0 | 3.2 | 0.00 | 0.00 | 0.00 | 52 | 1019.2 |
| 20260506135251 | 15 | 28 | 3.2 | 6.4 | 0.00 | 0.00 | 0.00 | 53 | 1019.3 |
| 20260506134748 | 14 | 20 | 1.6 | 3.2 | 0.00 | 0.00 | 0.00 | 54 | 1019.3 |
| 20260506134244 | 13 | 114 | 0.0 | 3.2 | 0.00 | 0.00 | 0.00 | 56 | 1019.3 |
| 20260506133742 | 13 | 151 | 1.6 | 3.2 | 0.00 | 0.00 | 0.00 | 57 | 1019.3 |
| 20260506133238 | 12 | 239 | 3.2 | 3.2 | 0.00 | 0.00 | 0.00 | 58 | 1019.1 |
| 20260506132735 | 11 | 283 | 0.0 | 3.2 | 0.00 | 0.00 | 0.00 | 60 | 1019.1 |
| 20260506132233 | 11 | 242 | 1.6 | 3.2 | 0.00 | 0.00 | 0.00 | 62 | 1019.1 |
| 20260506131731 | 11 | 181 | 1.6 | 3.2 | 0.00 | 0.00 | 0.00 | 62 | 1018.9 |
| 20260506131226 | 10 | 272 | 1.6 | 3.2 | 0.00 | 0.00 | 0.00 | 63 | 1018.9 |
| 20260506130723 | 10 | 165 | 0.0 | 3.2 | 0.00 | 0.00 | 0.00 | 62 | 1018.8 |
| 20260506130220 | 11 | 194 | 3.2 | 3.2 | 0.00 | 0.00 | 0.00 | 63 | 1018.8 |
| 20260506125718 | 10 | 151 | 0.0 | 3.2 | 0.00 | 0.00 | 0.00 | 62 | 1018.7 |
| 20260506125216 | 11 | 148 | 0.0 | 3.2 | 0.00 | 0.00 | 0.00 | 62 | 1018.8 |
| 20260506124714 | 10 | 61 | 1.6 | 3.2 | 0.00 | 0.00 | 0.00 | 63 | 1018.6 |
| 20260506124211 | 11 | 91 | 3.2 | 3.2 | 0.00 | 0.00 | 0.00 | 62 | 1018.3 |
| 20260506123708 | 11 | 256 | 0.0 | 3.2 | 0.00 | 0.00 | 0.00 | 61 | 1018.5 |
| 20260506123207 | 11 | 247 | 1.6 | 3.2 | 0.00 | 0.00 | 0.00 | 61 | 1018.5 |
| 20260506122703 | 11 | 262 | 1.6 | 3.2 | 0.00 | 0.00 | 0.00 | 60 | 1018.3 |
| 20260506122201 | 12 | 192 | 1.6 | 4.8 | 0.00 | 0.00 | 0.00 | 59 | 1018.6 |
| 20260506121659 | 12 | 215 | 1.6 | 3.2 | 0.00 | 0.00 | 0.00 | 59 | 1018.3 |
| 20260506121155 | 12 | 239 | 3.2 | 6.4 | 0.00 | 0.00 | 0.00 | 59 | 1018.4 |
| 20260506120653 | 11 | 178 | 0.0 | 3.2 | 0.00 | 0.00 | 0.00 | 62 | 1018.3 |
| 20260506120150 | 10 | 195 | 1.6 | 3.2 | 0.00 | 0.00 | 0.00 | 62 | 1018.3 |
| 20260506115648 | 11 | 184 | 3.2 | 3.2 | 0.00 | 0.00 | 0.00 | 62 | 1018.1 |
| 20260506115146 | 10 | 162 | 1.6 | 3.2 | 0.00 | 0.00 | 0.00 | 64 | 1018.3 |
| 20260506114643 | 11 | 89 | 0.0 | 3.2 | 0.00 | 0.00 | 0.00 | 63 | 1018.0 |
| 20260506114141 | 11 | 60 | 0.0 | 1.6 | 0.00 | 0.00 | 0.00 | 62 | 1018.1 |
| 20260506113639 | 11 | 22 | 1.6 | 3.2 | 0.00 | 0.00 | 0.00 | 63 | 1018.1 |
| 20260506113136 | 11 | 116 | 1.6 | 3.2 | 0.00 | 0.00 | 0.00 | 61 | 1018.2 |
| 20260506112632 | 12 | 320 | 0.0 | 3.2 | 0.00 | 0.00 | 0.00 | 60 | 1018.1 |
| 20260506112130 | 11 | 191 | 0.0 | 3.2 | 0.00 | 0.00 | 0.00 | 62 | 1018.0 |
| 20260506111627 | 11 | 240 | 0.0 | 3.2 | 0.00 | 0.00 | 0.00 | 62 | 1018.2 |
| 20260506111125 | 11 | 198 | 3.2 | 4.8 | 0.00 | 0.00 | 0.00 | 62 | 1018.1 |
| 20260506110622 | 11 | 211 | 3.2 | 3.2 | 0.00 | 0.00 | 0.00 | 62 | 1018.2 |
| 20260506110120 | 11 | 260 | 1.6 | 3.2 | 0.00 | 0.00 | 0.00 | 62 | 1018.0 |
| 20260506105616 | 11 | 231 | 3.2 | 3.2 | 0.00 | 0.00 | 0.00 | 62 | 1017.9 |